AAL857 KLAS-KPHX

Flight info

Callsign AAL857
Flight time 0h 49m
Altitude 29000
Route RASLR3 ZAYNE WOTRO BRUSR1
Aircraft B38M/M-SDE1FGHILORVWXY/HB1

Departure

Time 2026-05-04 00:57
Airport Harry Reid International Airport (KLAS)

Arrival

Time 2026-05-04 01:46
Airport Phoenix Sky Harbor International Airport (KPHX)
Time Latitude Longitude Altitude Speed Heading
2026-05-04 00:30 36.08039 -115.13471 2118 ft 0 kts 272°
2026-05-04 00:44 36.08038 -115.13459 2118 ft 2 kts 270°
2026-05-04 00:44 36.08038 -115.13440 2118 ft 2 kts 272°
2026-05-04 00:44 36.08037 -115.13421 2117 ft 2 kts 272°
2026-05-04 00:44 36.08036 -115.13402 2117 ft 2 kts 278°
2026-05-04 00:45 36.08032 -115.13383 2119 ft 2 kts 253°
2026-05-04 00:45 36.08045 -115.13375 2120 ft 2 kts 180°
2026-05-04 00:45 36.08055 -115.13375 2118 ft 1 kts 181°
2026-05-04 00:45 36.08056 -115.13375 2117 ft 0 kts 181°
2026-05-04 00:50 36.08011 -115.13375 2118 ft 14 kts 181°
2026-05-04 00:50 36.07908 -115.13377 2124 ft 18 kts 180°
2026-05-04 00:51 36.07787 -115.13374 2129 ft 15 kts 167°
2026-05-04 00:51 36.07755 -115.13279 2128 ft 14 kts 90°
2026-05-04 00:51 36.07755 -115.13151 2125 ft 17 kts 90°
2026-05-04 00:51 36.07755 -115.13007 2125 ft 18 kts 91°
2026-05-04 00:52 36.07754 -115.12851 2124 ft 20 kts 90°
2026-05-04 00:52 36.07755 -115.12679 2121 ft 22 kts 90°
2026-05-04 00:52 36.07755 -115.12497 2122 ft 22 kts 90°
2026-05-04 00:52 36.07755 -115.12314 2123 ft 22 kts 90°
2026-05-04 00:53 36.07744 -115.12143 2124 ft 21 kts 124°
2026-05-04 00:53 36.07719 -115.12125 2125 ft 0 kts 173°
2026-05-04 00:55 36.07666 -115.12123 2127 ft 15 kts 191°
2026-05-04 00:55 36.07643 -115.12194 2127 ft 0 kts 269°
2026-05-04 00:55 36.07643 -115.12206 2127 ft 5 kts 269°
2026-05-04 00:56 36.07643 -115.12532 2125 ft 78 kts 270°
2026-05-04 00:56 36.07640 -115.13452 2128 ft 145 kts 270°
2026-05-04 00:56 36.07634 -115.14745 2169 ft 188 kts 269°
2026-05-04 00:56 36.07637 -115.16234 2467 ft 172 kts 268°
2026-05-04 00:57 36.07644 -115.17687 2503 ft 187 kts 268°
2026-05-04 00:57 36.07652 -115.19065 3265 ft 168 kts 263°
2026-05-04 00:57 36.07640 -115.20438 4121 ft 172 kts 258°
2026-05-04 00:57 36.07466 -115.21853 4007 ft 189 kts 256°
2026-05-04 00:58 36.07263 -115.23385 4049 ft 202 kts 256°
2026-05-04 00:58 36.06843 -115.24994 4115 ft 217 kts 229°
2026-05-04 00:58 36.05753 -115.26091 5012 ft 211 kts 206°
2026-05-04 00:58 36.04474 -115.26789 5664 ft 225 kts 203°
2026-05-04 00:59 36.03038 -115.27524 6234 ft 243 kts 202°
2026-05-04 00:59 36.01603 -115.28228 6886 ft 252 kts 201°
2026-05-04 00:59 35.99982 -115.28606 7583 ft 263 kts 180°
2026-05-04 00:59 35.98369 -115.28182 7854 ft 269 kts 157°
2026-05-04 01:00 35.96921 -115.26871 7984 ft 277 kts 140°
2026-05-04 01:00 35.95575 -115.25351 8015 ft 278 kts 143°
2026-05-04 01:00 35.94291 -115.23952 8040 ft 276 kts 142°
2026-05-04 01:00 35.92988 -115.22527 8063 ft 274 kts 143°
2026-05-04 01:01 35.91672 -115.21036 8209 ft 280 kts 135°
2026-05-04 01:01 35.90683 -115.19186 8951 ft 284 kts 126°
2026-05-04 01:01 35.89703 -115.17196 9802 ft 289 kts 126°
2026-05-04 01:01 35.88754 -115.15268 10582 ft 295 kts 126°
2026-05-04 01:02 35.87794 -115.13308 10982 ft 312 kts 126°
2026-05-04 01:02 35.86731 -115.11059 11348 ft 332 kts 120°
2026-05-04 01:02 35.86007 -115.08435 11864 ft 347 kts 110°
2026-05-04 01:02 35.85355 -115.05700 12566 ft 350 kts 111°
2026-05-04 01:03 35.84676 -115.02894 13270 ft 355 kts 110°
2026-05-04 01:03 35.84040 -115.00261 13952 ft 357 kts 110°
2026-05-04 01:03 35.83366 -114.97483 14514 ft 364 kts 111°
2026-05-04 01:03 35.82700 -114.94730 15097 ft 368 kts 111°
2026-05-04 01:04 35.82002 -114.91845 15779 ft 371 kts 111°
2026-05-04 01:04 35.81340 -114.89123 16271 ft 377 kts 110°
2026-05-04 01:04 35.80629 -114.86194 16981 ft 378 kts 110°
2026-05-04 01:04 35.79913 -114.83243 17550 ft 383 kts 110°
2026-05-04 01:05 35.79218 -114.80391 18126 ft 385 kts 110°
2026-05-04 01:05 35.78515 -114.77511 18550 ft 391 kts 111°
2026-05-04 01:05 35.77793 -114.74556 18899 ft 398 kts 111°
2026-05-04 01:05 35.77054 -114.71525 19400 ft 400 kts 111°
2026-05-04 01:06 35.76293 -114.68426 19852 ft 405 kts 111°
2026-05-04 01:06 35.75545 -114.65386 20173 ft 413 kts 112°
2026-05-04 01:06 35.74438 -114.62376 20689 ft 405 kts 129°
2026-05-04 01:06 35.72705 -114.59802 21128 ft 400 kts 142°
2026-05-04 01:07 35.70862 -114.57372 21439 ft 411 kts 139°
2026-05-04 01:07 35.69049 -114.54864 21898 ft 414 kts 139°
2026-05-04 01:07 35.67178 -114.52248 22424 ft 417 kts 139°
2026-05-04 01:07 35.65288 -114.49582 22718 ft 425 kts 139°
2026-05-04 01:08 35.63492 -114.47038 23246 ft 425 kts 139°
2026-05-04 01:08 35.61602 -114.44362 23527 ft 432 kts 139°
2026-05-04 01:08 35.59715 -114.41688 23867 ft 435 kts 140°
2026-05-04 01:08 35.57856 -114.39058 24178 ft 440 kts 140°
2026-05-04 01:09 35.55993 -114.36422 24483 ft 443 kts 139°
2026-05-04 01:09 35.53998 -114.33605 24919 ft 444 kts 139°
2026-05-04 01:09 35.52020 -114.30812 25213 ft 450 kts 139°
2026-05-04 01:09 35.50065 -114.28056 25614 ft 451 kts 140°
2026-05-04 01:10 35.48103 -114.25290 25944 ft 455 kts 140°
2026-05-04 01:10 35.46179 -114.22580 26282 ft 458 kts 140°
2026-05-04 01:10 35.44199 -114.19795 26667 ft 460 kts 140°
2026-05-04 01:10 35.42369 -114.17223 26933 ft 463 kts 140°
2026-05-04 01:11 35.40459 -114.14538 27249 ft 467 kts 140°
2026-05-04 01:11 35.38502 -114.11791 27610 ft 470 kts 139°
2026-05-04 01:11 35.36640 -114.09179 27886 ft 472 kts 139°
2026-05-04 01:11 35.34751 -114.06533 28196 ft 475 kts 139°
2026-05-04 01:12 35.32717 -114.03672 28539 ft 478 kts 137°
2026-05-04 01:12 35.30974 -114.00510 28802 ft 494 kts 122°
2026-05-04 01:12 35.29835 -113.96886 29006 ft 507 kts 110°
2026-05-04 01:12 35.28976 -113.92908 28802 ft 509 kts 109°
2026-05-04 01:13 35.28141 -113.88984 28837 ft 507 kts 109°
2026-05-04 01:13 35.26516 -113.81202 28848 ft 510 kts 108°
2026-05-04 01:14 35.24929 -113.73594 28842 ft 511 kts 108°
2026-05-04 01:14 35.23329 -113.65886 28828 ft 510 kts 107°
2026-05-04 01:15 35.21918 -113.58376 28802 ft 509 kts 107°
2026-05-04 01:15 35.20462 -113.50750 28729 ft 510 kts 107°
2026-05-04 01:16 35.19047 -113.43363 28806 ft 510 kts 107°
2026-05-04 01:16 35.17533 -113.35507 28747 ft 507 kts 108°
2026-05-04 01:16 35.16422 -113.31722 28679 ft 496 kts 123°
2026-05-04 01:17 35.14773 -113.28462 28901 ft 484 kts 129°
2026-05-04 01:17 35.13151 -113.25378 29179 ft 488 kts 129°
2026-05-04 01:17 35.11452 -113.22193 28805 ft 493 kts 129°
2026-05-04 01:17 35.09640 -113.18841 28682 ft 492 kts 130°
2026-05-04 01:18 35.08439 -113.16636 28795 ft 493 kts 130°
2026-05-04 01:18 35.04270 -113.09078 28768 ft 493 kts 130°
2026-05-04 01:19 35.01357 -113.03808 28813 ft 493 kts 130°
2026-05-04 01:19 34.97700 -112.97204 28794 ft 492 kts 130°
2026-05-04 01:19 34.95940 -112.94028 28577 ft 483 kts 130°
2026-05-04 01:20 34.94235 -112.90959 28178 ft 479 kts 130°
2026-05-04 01:20 34.92437 -112.87723 27778 ft 474 kts 130°
2026-05-04 01:20 34.90712 -112.84619 27403 ft 469 kts 131°
2026-05-04 01:20 34.89006 -112.81553 27032 ft 465 kts 131°
2026-05-04 01:21 34.87343 -112.78568 26654 ft 460 kts 131°
2026-05-04 01:21 34.85663 -112.75552 26297 ft 456 kts 131°
2026-05-04 01:21 34.83995 -112.72564 25946 ft 451 kts 131°
2026-05-04 01:21 34.82325 -112.69574 25592 ft 447 kts 131°
2026-05-04 01:22 34.80678 -112.66627 25250 ft 443 kts 131°
2026-05-04 01:22 34.79032 -112.63682 24873 ft 439 kts 131°
2026-05-04 01:22 34.77409 -112.60785 24531 ft 436 kts 131°
2026-05-04 01:22 34.75766 -112.57852 24198 ft 433 kts 131°
2026-05-04 01:23 34.74226 -112.55106 23908 ft 429 kts 131°
2026-05-04 01:23 34.72772 -112.52514 23811 ft 419 kts 131°
2026-05-04 01:23 34.71236 -112.49780 23999 ft 421 kts 132°
2026-05-04 01:23 34.69503 -112.47356 23919 ft 406 kts 148°
2026-05-04 01:24 34.67367 -112.45263 23656 ft 404 kts 149°
2026-05-04 01:24 34.65282 -112.43186 23192 ft 403 kts 149°
2026-05-04 01:24 34.63146 -112.41079 22736 ft 401 kts 149°
2026-05-04 01:24 34.61220 -112.39190 22310 ft 399 kts 149°
2026-05-04 01:25 34.59149 -112.37163 21868 ft 398 kts 148°
2026-05-04 01:25 34.57066 -112.35128 21430 ft 396 kts 148°
2026-05-04 01:25 34.55017 -112.33128 21009 ft 395 kts 148°
2026-05-04 01:25 34.53130 -112.31287 20598 ft 393 kts 148°
2026-05-04 01:26 34.51101 -112.29309 20195 ft 391 kts 148°
2026-05-04 01:26 34.49101 -112.27361 19756 ft 390 kts 148°
2026-05-04 01:26 34.47104 -112.25416 19352 ft 388 kts 148°
2026-05-04 01:26 34.45189 -112.23735 18931 ft 377 kts 159°
2026-05-04 01:27 34.42911 -112.22758 18863 ft 351 kts 174°
2026-05-04 01:27 34.40689 -112.22112 18832 ft 348 kts 173°
2026-05-04 01:27 34.38431 -112.21473 18724 ft 349 kts 174°
2026-05-04 01:27 34.36220 -112.20870 18438 ft 345 kts 174°
2026-05-04 01:28 34.34177 -112.20324 18189 ft 343 kts 174°
2026-05-04 01:28 34.31927 -112.19732 17937 ft 341 kts 174°
2026-05-04 01:28 34.29836 -112.19187 17603 ft 340 kts 174°
2026-05-04 01:28 34.27635 -112.18615 17217 ft 339 kts 173°
2026-05-04 01:29 34.25442 -112.18048 16825 ft 338 kts 173°
2026-05-04 01:29 34.23265 -112.17485 16485 ft 336 kts 173°
2026-05-04 01:29 34.21225 -112.16957 16135 ft 334 kts 173°
2026-05-04 01:29 34.19235 -112.16444 15796 ft 333 kts 173°
2026-05-04 01:30 34.17122 -112.15897 15444 ft 331 kts 172°
2026-05-04 01:30 34.15035 -112.15358 15093 ft 330 kts 172°
2026-05-04 01:30 34.13038 -112.14845 14779 ft 328 kts 172°
2026-05-04 01:30 34.10962 -112.14309 14449 ft 325 kts 171°
2026-05-04 01:31 34.08998 -112.13801 14106 ft 316 kts 170°
2026-05-04 01:31 34.07084 -112.13063 13780 ft 308 kts 164°
2026-05-04 01:31 34.05249 -112.12288 13444 ft 299 kts 163°
2026-05-04 01:31 34.03423 -112.11533 13075 ft 290 kts 164°
2026-05-04 01:32 34.01626 -112.10800 12708 ft 284 kts 164°
2026-05-04 01:32 34.00055 -112.10164 12387 ft 285 kts 164°
2026-05-04 01:32 33.98288 -112.09452 12057 ft 286 kts 164°
2026-05-04 01:32 33.96431 -112.08706 11679 ft 286 kts 164°
2026-05-04 01:33 33.94731 -112.08023 11335 ft 286 kts 165°
2026-05-04 01:33 33.92929 -112.07301 11018 ft 286 kts 165°
2026-05-04 01:33 33.91062 -112.06552 10656 ft 287 kts 165°
2026-05-04 01:33 33.89302 -112.05849 10325 ft 287 kts 164°
2026-05-04 01:34 33.87487 -112.05116 9979 ft 288 kts 165°
2026-05-04 01:34 33.85626 -112.04360 9628 ft 287 kts 164°
2026-05-04 01:34 33.83812 -112.03623 9292 ft 286 kts 164°
2026-05-04 01:34 33.82019 -112.02896 9021 ft 283 kts 165°
2026-05-04 01:35 33.80257 -112.02180 8986 ft 276 kts 165°
2026-05-04 01:35 33.78565 -112.01496 8915 ft 276 kts 165°
2026-05-04 01:35 33.76984 -112.00856 8760 ft 274 kts 165°
2026-05-04 01:35 33.75315 -112.00180 8605 ft 272 kts 165°
2026-05-04 01:36 33.73537 -111.99461 8506 ft 273 kts 165°
2026-05-04 01:36 33.71827 -111.98771 8339 ft 273 kts 164°
2026-05-04 01:36 33.70137 -111.98087 8188 ft 272 kts 165°
2026-05-04 01:36 33.68503 -111.97428 8076 ft 271 kts 165°
2026-05-04 01:37 33.66791 -111.96736 8014 ft 259 kts 164°
2026-05-04 01:37 33.65215 -111.96098 8068 ft 251 kts 165°
2026-05-04 01:37 33.63600 -111.95448 8102 ft 252 kts 165°
2026-05-04 01:37 33.62051 -111.94822 7993 ft 250 kts 165°
2026-05-04 01:38 33.60448 -111.94174 7830 ft 249 kts 165°
2026-05-04 01:38 33.58878 -111.93539 7668 ft 248 kts 165°
2026-05-04 01:38 33.57285 -111.92896 7477 ft 249 kts 165°
2026-05-04 01:38 33.55711 -111.92262 7244 ft 248 kts 165°
2026-05-04 01:39 33.54177 -111.91553 7017 ft 251 kts 153°
2026-05-04 01:39 33.52995 -111.90133 6656 ft 265 kts 122°
2026-05-04 01:39 33.52603 -111.88138 6315 ft 276 kts 92°
2026-05-04 01:39 33.52691 -111.85884 6173 ft 271 kts 93°
2026-05-04 01:40 33.52714 -111.83687 5848 ft 275 kts 92°
2026-05-04 01:40 33.52753 -111.81549 5487 ft 279 kts 92°
2026-05-04 01:40 33.52793 -111.79341 5129 ft 282 kts 94°
2026-05-04 01:40 33.52477 -111.77212 4720 ft 276 kts 119°
2026-05-04 01:41 33.51481 -111.75508 4362 ft 267 kts 144°
2026-05-04 01:41 33.50060 -111.74556 4128 ft 248 kts 170°
2026-05-04 01:41 33.48546 -111.74296 4197 ft 219 kts 180°
2026-05-04 01:41 33.47184 -111.74451 3952 ft 211 kts 205°
2026-05-04 01:42 33.46184 -111.75348 3791 ft 197 kts 234°
2026-05-04 01:42 33.45508 -111.76736 4351 ft 201 kts 239°
2026-05-04 01:42 33.44880 -111.78138 4737 ft 212 kts 239°
2026-05-04 01:42 33.44220 -111.79618 4521 ft 214 kts 239°
2026-05-04 01:43 33.43596 -111.81054 4092 ft 222 kts 244°
2026-05-04 01:43 33.43373 -111.82888 3551 ft 240 kts 273°
2026-05-04 01:43 33.43611 -111.84622 3519 ft 228 kts 273°
2026-05-04 01:43 33.43777 -111.86363 3512 ft 215 kts 272°
2026-05-04 01:44 33.44014 -111.88066 3256 ft 203 kts 272°
2026-05-04 01:44 33.44093 -111.89696 2963 ft 189 kts 263°
2026-05-04 01:44 33.44070 -111.91180 2680 ft 176 kts 264°
2026-05-04 01:44 33.44073 -111.92550 2443 ft 159 kts 263°
2026-05-04 01:45 33.44073 -111.93779 2237 ft 152 kts 263°
2026-05-04 01:45 33.44072 -111.95009 2044 ft 151 kts 265°
2026-05-04 01:45 33.44076 -111.97440 1672 ft 150 kts 269°
2026-05-04 01:46 33.44078 -111.98614 1352 ft 149 kts 270°
2026-05-04 01:46 33.44094 -111.99934 1185 ft 149 kts 271°
2026-05-04 01:46 33.44093 -112.00938 1136 ft 67 kts 268°
2026-05-04 01:46 33.44077 -112.01267 1138 ft 21 kts 253°
2026-05-04 01:47 33.43994 -112.01359 1137 ft 14 kts 160°
2026-05-04 01:47 33.43977 -112.01324 1136 ft 3 kts 96°
2026-05-04 01:47 33.43977 -112.01315 1134 ft 2 kts 92°
2026-05-04 01:47 33.43976 -112.01291 1137 ft 4 kts 92°
2026-05-04 01:48 33.43975 -112.01255 1137 ft 6 kts 91°
2026-05-04 01:48 33.43977 -112.01157 1134 ft 17 kts 88°
2026-05-04 01:48 33.43975 -112.00996 1136 ft 19 kts 90°
2026-05-04 01:48 33.43975 -112.00859 1135 ft 17 kts 90°
2026-05-04 01:49 33.43975 -112.00717 1133 ft 17 kts 90°
2026-05-04 01:49 33.43974 -112.00572 1136 ft 18 kts 90°
2026-05-04 01:49 33.43974 -112.00420 1135 ft 19 kts 90°
2026-05-04 01:49 33.43974 -112.00255 1135 ft 20 kts 90°
2026-05-04 01:50 33.43973 -112.00108 1134 ft 12 kts 90°
2026-05-04 01:50 33.43973 -112.00027 1134 ft 9 kts 90°
2026-05-04 01:50 33.43972 -111.99961 1134 ft 8 kts 90°
2026-05-04 01:50 33.43970 -111.99880 1135 ft 12 kts 100°
2026-05-04 01:51 33.43906 -111.99828 1136 ft 14 kts 182°
2026-05-04 01:51 33.43806 -111.99845 1133 ft 15 kts 213°
2026-05-04 01:51 33.43790 -111.99887 1137 ft 0 kts 269°